カタログに戻る

STARLINK-5514

運用中通信VLEO
NORAD 57248·PAYLOAD·🇺🇸 United States

打ち上げ Jul 7, 2023 から Vandenberg Space Force Base

Loading…

次のパス (今後24時間)

TLE

最新Source: CelesTrak SupGP

元期: Sep 15, 2026, 02:05 UTC

1 57248C 23094AG  26258.08729167 -.00036426  00000+0 -13196-2 0  2589
2 57248  43.0025  29.9647 0002112 259.6702 308.1782 15.27589987    17

AllMySatでSTARLINK-5514をリアルタイム追跡

Download on the App Store